{"data":{"norad_id":53546,"epoch":"2026-05-25T03:28:55.844256Z","epoch_age_seconds":59560,"freshness":"FRESH","line1":"1 53546U 22101V   26145.14509079 -.00000232  00000+0  34954-5 0  9999","line2":"2 53546  53.2126  70.4262 0001301  61.7044 298.4079 15.08835516207990","mean_motion":15.08835516,"eccentricity":0.0001301,"inclination_deg":53.2126,"raan_deg":70.4262,"arg_perigee_deg":61.7044,"mean_anomaly_deg":298.4079,"bstar":3.4954e-6,"rev_number":20799,"period_min":95.437838301786,"perigee_km":538.85707677046,"apogee_km":540.65711281393,"semimajor_km":6917.8940947922,"source":"CELESTRAK","updated_at":"2026-05-25T13:38:17.443466Z"}}